Date String (YYYY-MM-DD hh:mm:ss) UTC,Instrument flags,Ambient pressure (hPa),Sample flow (lpm),Bypass flow (lpm),Sample temperature (°C),Ambient temperature (°C),ASC tube jacket temperature (°C),LED temperature (°C),Box temperature (°C),Sample RH (%),Span deviation,Mass concentration (μg/m³),Mass concentration (μg/m³),Mass concentration (μg/m³)
DateTimeUTC,F1_M11,P_M11,Q1_M11,Q2_M11,T1_M11,T2_M11,T3_M11,T4_M11,T5_M11,U1_M11,ZSPAN_M11,X0_M11,X2_M11,X1_M11
2022-05-03 02:00:00,,0823.9,4.99,0.00,24.2,23.4,00.0,33.2,26.0,21.1,0000.0,0006.36,0003.96,0003.87
2022-05-03 02:01:00,,0823.9,5.01,0.00,24.2,23.4,00.0,33.2,26.0,21.2,0000.0,0006.38,0003.95,0003.86
2022-05-03 02:02:00,,0823.9,4.99,0.00,24.2,23.4,00.0,33.2,26.0,21.2,0000.0,0006.10,0003.97,0003.86
2022-05-03 02:03:00,,0823.8,5.00,0.00,24.2,23.4,00.0,33.2,26.0,21.1,0000.0,0005.00,0003.96,0003.85
2022-05-03 02:04:00,,0823.8,5.01,0.00,24.2,23.4,00.0,33.2,26.0,21.2,0000.0,0005.03,0003.97,0003.85
2022-05-03 02:05:00,,0823.8,4.99,0.00,24.2,23.4,00.0,33.2,26.1,21.3,0000.0,0004.97,0003.96,0003.85
2022-05-03 02:06:00,,0823.9,4.99,0.00,24.2,23.4,00.0,33.2,26.1,21.4,0000.0,0005.01,0003.94,0003.85
2022-05-03 02:07:00,,0823.9,5.01,0.00,24.2,23.5,00.0,33.2,26.1,21.3,0000.0,0005.12,0003.95,0003.85
2022-05-03 02:08:00,,0823.9,5.01,0.00,24.2,23.5,00.0,33.2,26.1,21.3,0000.0,0005.15,0003.96,0003.85
2022-05-03 02:09:00,,0823.8,5.00,0.00,24.2,23.5,00.0,33.2,26.1,21.3,0000.0,0005.15,0003.96,0003.85
2022-05-03 02:10:00,,0823.8,4.99,0.00,24.2,23.5,00.0,33.2,26.1,21.3,0000.0,0005.13,0003.96,0003.86
2022-05-03 02:11:00,,0823.8,5.00,0.00,24.2,23.5,00.0,33.2,26.1,21.4,0000.0,0005.19,0003.99,0003.88
2022-05-03 02:12:00,,0823.8,4.99,0.00,24.2,23.5,00.0,33.2,26.0,21.4,0000.0,0005.23,0004.02,0003.92
2022-05-03 02:13:00,,0823.8,5.00,0.00,24.2,23.5,00.0,33.2,26.0,21.4,0000.0,0005.26,0004.05,0003.95
2022-05-03 02:14:00,,0823.8,5.00,0.00,24.2,23.5,00.0,33.2,26.1,21.4,0000.0,0005.21,0004.06,0003.98
2022-05-03 02:15:00,,0823.8,4.99,0.00,24.2,23.5,00.0,33.2,26.1,21.4,0000.0,0005.30,0004.10,0004.02
2022-05-03 02:16:00,,0823.8,4.99,0.00,24.3,23.5,00.0,33.2,26.1,21.4,0000.0,0005.43,0004.15,0004.06
2022-05-03 02:17:00,,0823.8,5.01,0.00,24.2,23.4,00.0,33.2,26.1,21.3,0000.0,0005.47,0004.20,0004.10
2022-05-03 02:18:00,,0823.9,4.99,0.00,24.2,23.5,00.0,33.2,26.1,21.3,0000.0,0005.37,0004.23,0004.13
2022-05-03 02:19:00,,0823.8,4.99,0.00,24.2,23.4,00.0,33.2,26.1,21.2,0000.0,0005.58,0004.29,0004.18
2022-05-03 02:20:00,,0823.8,5.01,0.00,24.2,23.4,00.0,33.2,26.0,21.2,0000.0,0005.78,0004.37,0004.24
2022-05-03 02:21:00,,0823.8,4.98,0.00,24.2,23.4,00.0,33.2,26.0,21.3,0000.0,0005.90,0004.41,0004.27
2022-05-03 02:22:00,,0823.9,5.00,0.00,24.2,23.4,00.0,33.2,26.0,21.3,0000.0,0005.97,0004.44,0004.30
2022-05-03 02:23:00,,0823.9,5.00,0.00,24.2,23.4,00.0,33.2,26.0,21.3,0000.0,0006.03,0004.46,0004.32
2022-05-03 02:24:00,,0823.9,4.98,0.00,24.2,23.4,00.0,33.2,26.0,21.4,0000.0,0006.12,0004.49,0004.34
2022-05-03 02:25:00,,0823.9,5.02,0.00,24.2,23.4,00.0,33.2,26.0,21.4,0000.0,0006.26,0004.53,0004.35
2022-05-03 02:26:00,,0823.9,5.00,0.00,24.2,23.4,00.0,33.1,26.0,21.4,0000.0,0006.30,0004.55,0004.37
2022-05-03 02:27:00,,0823.9,4.99,0.00,24.2,23.4,00.0,33.1,26.0,21.4,0000.0,0006.41,0004.55,0004.38
2022-05-03 02:28:00,,0823.9,5.01,0.00,24.2,23.4,00.0,33.2,26.0,21.4,0000.0,0006.53,0004.57,0004.39
2022-05-03 02:29:00,,0823.9,4.99,0.00,24.2,23.4,00.0,33.2,26.0,21.5,0000.0,0006.56,0004.58,0004.39
2022-05-03 02:30:00,,0824.0,4.99,0.00,24.2,23.4,00.0,33.1,26.0,21.4,0000.0,0006.39,0004.55,0004.38
2022-05-03 02:31:00,,0823.9,5.01,0.00,24.2,23.4,00.0,33.1,25.9,21.4,0000.0,0006.26,0004.52,0004.38
2022-05-03 02:32:00,,0823.9,4.99,0.00,24.2,23.3,00.0,33.1,25.9,21.4,0000.0,0006.30,0004.53,0004.39
2022-05-03 02:33:00,,0823.9,5.01,0.00,24.2,23.4,00.0,33.1,26.0,21.4,0000.0,0006.23,0004.52,0004.39
2022-05-03 02:34:00,,0823.9,5.00,0.00,24.2,23.4,00.0,33.1,26.0,21.4,0000.0,0006.21,0004.53,0004.40
2022-05-03 02:35:00,,0823.8,4.99,0.00,24.2,23.4,00.0,33.1,26.0,21.4,0000.0,0006.17,0004.53,0004.41
2022-05-03 02:36:00,,0823.8,4.99,0.00,24.2,23.4,00.0,33.1,26.0,21.4,0000.0,0006.17,0004.53,0004.41
2022-05-03 02:37:00,,0823.9,5.01,0.00,24.2,23.4,00.0,33.1,26.0,21.5,0000.0,0006.12,0004.52,0004.41
2022-05-03 02:38:00,,0823.9,4.99,0.00,24.1,23.4,00.0,33.1,25.9,21.6,0000.0,0005.94,0004.51,0004.41
2022-05-03 02:39:00,,0823.9,5.01,0.00,24.1,23.3,00.0,33.1,25.9,21.7,0000.0,0005.86,0004.53,0004.44
2022-05-03 02:40:00,,0823.9,4.99,0.00,24.1,23.3,00.0,33.1,25.9,21.7,0000.0,0005.89,0004.57,0004.48
2022-05-03 02:41:00,,0823.9,5.01,0.00,24.1,23.3,00.0,33.1,25.9,21.7,0000.0,0006.01,0004.64,0004.54
2022-05-03 02:42:00,,0823.9,4.99,0.00,24.1,23.3,00.0,33.1,25.9,21.7,0000.0,0006.19,0004.71,0004.59
2022-05-03 02:43:00,,0823.9,4.99,0.00,24.1,23.3,00.0,33.1,25.9,21.7,0000.0,0006.28,0004.77,0004.65
2022-05-03 02:44:00,,0823.9,5.01,0.00,24.1,23.3,00.0,33.1,25.9,21.7,0000.0,0006.56,0004.84,0004.69
2022-05-03 02:45:00,,0823.9,4.99,0.00,24.0,23.3,00.0,33.1,25.8,21.7,0000.0,0006.77,0004.88,0004.72
2022-05-03 02:46:00,,0824.0,4.99,0.00,24.0,23.2,00.0,33.1,25.8,21.8,0000.0,0007.63,0004.91,0004.73
2022-05-03 02:47:00,,0824.0,5.00,0.00,24.0,23.2,00.0,33.1,25.7,21.8,0000.0,0007.71,0004.94,0004.76
2022-05-03 02:48:00,,0823.9,5.01,0.00,24.0,23.2,00.0,33.0,25.7,21.8,0000.0,0007.73,0004.96,0004.78
2022-05-03 02:49:00,,0824.0,4.99,0.00,24.0,23.2,00.0,33.0,25.7,21.9,0000.0,0007.75,0004.97,0004.79
2022-05-03 02:50:00,,0824.0,5.00,0.00,24.0,23.2,00.0,33.0,25.7,22.0,0000.0,0007.77,0004.98,0004.79
2022-05-03 02:51:00,,0824.1,5.01,0.00,24.0,23.2,00.0,33.0,25.7,22.0,0000.0,0007.78,0004.97,0004.78
2022-05-03 02:52:00,,0824.0,5.00,0.00,24.0,23.2,00.0,33.0,25.7,22.1,0000.0,0007.95,0004.95,0004.75
2022-05-03 02:53:00,,0824.0,4.99,0.00,24.0,23.2,00.0,33.0,25.7,22.2,0000.0,0007.91,0004.91,0004.71
2022-05-03 02:54:00,,0824.0,5.01,0.00,24.0,23.2,00.0,33.0,25.7,22.3,0000.0,0007.86,0004.86,0004.66
2022-05-03 02:55:00,,0824.1,4.99,0.00,24.0,23.2,00.0,33.0,25.7,22.8,0000.0,0007.77,0004.80,0004.63
2022-05-03 02:56:00,,0824.0,5.00,0.00,24.0,23.2,00.0,33.0,25.7,24.0,0000.0,0007.68,0004.79,0004.62
2022-05-03 02:57:00,,0824.0,4.99,0.00,23.9,23.2,00.0,33.0,25.7,23.3,0000.0,0006.91,0004.79,0004.63
2022-05-03 02:58:00,,0824.1,5.00,0.00,23.9,23.2,00.0,33.0,25.7,22.8,0000.0,0006.64,0004.78,0004.63
2022-05-03 02:59:00,,0824.1,5.01,0.00,23.9,23.2,00.0,33.0,25.6,22.7,0000.0,0006.66,0004.81,0004.66
